Weather History for Crane Lake, MN

Change the Weather History Date:

Saturday, December 31, 2011

  Actual Average Record
Temperature  
Mean Temperature 14 °F -  
Max Temperature 28 °F 15 °F 37 °F (2006)
Min Temperature 1 °F 0 °F -38 °F (2013)
Degree Days  
Heating Degree Days 50    
Moisture  
Dew Point 18 °F    
Average Humidity 93    
Maximum Humidity 100    
Minimum Humidity 85    
Precipitation  
Precipitation 0.15 in - - ()
Sea Level Pressure  
Sea Level Pressure 29.71 in    
Wind  
Wind Speed 0 mph (SSE)    
Max Wind Speed 4 mph    
Max Gust Speed -    
Visibility 7 miles    
Events Snow    
Averages and records for this station are not official NWS values.
T = Trace of Precipitation, MM = Missing Value Source: NWS Daily Summary

Daily Weather History Graph

Daily Weather History Graph

Search for Another Location

Airport:

Trip Planner

Search our weather history database for the weather conditions in past years. The results will help you decide how hot, cold, wet, or windy it might be!

Date:

Astronomy

Dec. 31, 2011 Rise Set
Actual Time 8:00 AM CST 4:25 PM CST
Civil Twilight 7:24 AM CST 5:01 PM CST
Nautical Twilight 6:44 AM CST 5:41 PM CST
Astronomical Twilight 6:06 AM CST 6:19 PM CST
Moon 11:10 AM CST (12/31) No Moon Set
Length of Visible Light 9h 37m
Length of Day
8h 24m
Waxing Crescent, 45% of the Moon is Illuminated
Dec 31
Waxing Crescent
Jan 1
First Quarter
Jan 9
Full
Jan 16
Last Quarter
Jan 23
New

Hourly Weather History & Observations

Time (CST) Temp. Windchill Dew Point Humidity Pressure Visibility Wind Dir Wind Speed Gust Speed Precip Events Conditions
12:08 AM 3.2 °F - 1.4 °F 92% 29.81 in 10.0 mi Calm Calm - N/A   Clear
12:28 AM 3.2 °F - -0.4 °F 85% 29.81 in 10.0 mi Calm Calm - N/A   Clear
12:48 AM 1.4 °F - -0.4 °F 92% 29.81 in 10.0 mi Calm Calm - N/A   Clear
1:08 AM 5.0 °F - 1.4 °F 85% 29.80 in 10.0 mi Calm Calm - N/A   Mostly Cloudy
1:28 AM 6.8 °F - 3.2 °F 85% 29.80 in 10.0 mi Calm Calm - N/A   Overcast
1:48 AM 8.6 °F - 6.8 °F 92% 29.78 in 10.0 mi Calm Calm - N/A   Overcast
2:28 AM 8.6 °F - 6.8 °F 92% 29.78 in 10.0 mi Calm Calm - N/A   Scattered Clouds
2:48 AM 6.8 °F - 5.0 °F 92% 29.78 in 10.0 mi Calm Calm - N/A   Scattered Clouds
3:08 AM 6.8 °F - 3.2 °F 85% 29.78 in 10.0 mi Calm Calm - N/A   Clear
3:29 AM 6.8 °F - 3.2 °F 85% 29.78 in 10.0 mi Calm Calm - N/A   Clear
3:48 AM 6.8 °F - 3.2 °F 85% 29.77 in 10.0 mi Calm Calm - N/A   Clear
4:09 AM 8.6 °F - 6.8 °F 92% 29.76 in 10.0 mi Calm Calm - N/A   Mostly Cloudy
4:28 AM 12.2 °F - 10.4 °F 92% 29.74 in 10.0 mi Calm Calm - N/A   Overcast
4:49 AM 12.2 °F - 10.4 °F 92% 29.74 in 10.0 mi Calm Calm - N/A   Overcast
5:28 AM 14.0 °F - 12.2 °F 93% 29.72 in 10.0 mi Calm Calm - N/A   Overcast
5:48 AM 15.8 °F - 12.2 °F 86% 29.73 in 10.0 mi Calm Calm - N/A   Overcast
6:08 AM 14.0 °F - 12.2 °F 93% 29.72 in 10.0 mi Calm Calm - N/A   Mostly Cloudy
6:28 AM 14.0 °F - 12.2 °F 93% 29.72 in 10.0 mi Calm Calm - N/A   Scattered Clouds
7:09 AM 17.6 °F - 15.8 °F 93% 29.72 in 10.0 mi Calm Calm - N/A   Clear
7:28 AM 17.6 °F - 15.8 °F 93% 29.72 in 10.0 mi Calm Calm - N/A   Clear
7:48 AM 17.6 °F - 15.8 °F 93% 29.72 in 10.0 mi Calm Calm - N/A   Scattered Clouds
8:08 AM 19.4 °F - 17.6 °F 93% 29.72 in 10.0 mi Calm Calm - N/A   Clear
8:28 AM 19.4 °F - 17.6 °F 93% 29.72 in 10.0 mi Calm Calm - N/A   Mostly Cloudy
9:08 AM 21.2 °F - 19.4 °F 93% 29.71 in 10.0 mi Calm Calm - N/A   Overcast
9:28 AM 21.2 °F - 19.4 °F 93% 29.71 in 10.0 mi Calm Calm - N/A   Overcast
9:48 AM 21.2 °F - 19.4 °F 93% 29.71 in 10.0 mi Calm Calm - N/A   Overcast
10:08 AM 23.0 °F 18.4 °F 21.2 °F 93% 29.70 in 10.0 mi SE 3.5 mph - N/A   Overcast
10:28 AM 24.8 °F 20.5 °F 21.2 °F 86% 29.71 in 10.0 mi SSE 3.5 mph - N/A   Overcast
10:48 AM 24.8 °F 20.5 °F 21.2 °F 86% 29.70 in 10.0 mi SSE 3.5 mph - N/A   Overcast
11:08 AM 24.8 °F 20.5 °F 23.0 °F 93% 29.69 in 10.0 mi SE 3.5 mph - N/A   Overcast
11:48 AM 24.8 °F 20.5 °F 24.8 °F 100% 29.68 in 7.0 mi SE 3.5 mph - N/A   Overcast
12:08 PM 26.6 °F - 24.8 °F 93% 29.67 in 7.0 mi Calm Calm - N/A   Overcast
12:28 PM 26.6 °F - 24.8 °F 93% 29.67 in 4.0 mi Calm Calm - N/A Snow Snow
12:48 PM 26.6 °F - 24.8 °F 93% 29.66 in 0.8 mi Calm Calm - N/A Snow Light Snow
1:08 PM 26.6 °F - 24.8 °F 93% 29.65 in 0.8 mi Calm Calm - 0.01 in Snow Light Snow
1:28 PM 26.6 °F - 24.8 °F 93% 29.65 in 1.0 mi Calm Calm - 0.02 in Snow Light Snow
1:48 PM 26.6 °F - 24.8 °F 93% 29.64 in 0.8 mi Calm Calm - 0.04 in Snow Light Snow
2:08 PM 26.6 °F - 24.8 °F 93% 29.64 in 0.5 mi Calm Calm - 0.02 in Snow Light Snow
2:28 PM 26.6 °F - 26.6 °F 100% 29.64 in 0.5 mi Calm Calm - 0.04 in Snow Snow
3:08 PM 26.6 °F - 26.6 °F 100% 29.64 in 0.5 mi Calm Calm - 0.02 in Snow Snow
3:28 PM 26.6 °F - 26.6 °F 100% 29.65 in 0.8 mi Calm Calm - 0.05 in Snow Light Snow
3:48 PM 26.6 °F - 26.6 °F 100% 29.66 in 1.8 mi Calm Calm - 0.06 in Snow Light Snow
4:08 PM 26.6 °F - 26.6 °F 100% 29.67 in 2.0 mi Calm Calm - N/A Snow Light Snow
4:28 PM 26.6 °F - 26.6 °F 100% 29.67 in 2.5 mi Calm Calm - N/A Snow Light Snow
4:48 PM 26.6 °F - 26.6 °F 100% 29.68 in 3.0 mi Calm Calm - N/A Snow Light Snow
5:08 PM 26.6 °F - 26.6 °F 100% 29.67 in 2.0 mi Calm Calm - 0.01 in Snow Light Snow
5:28 PM 26.6 °F - 26.6 °F 100% 29.66 in 3.0 mi Calm Calm - 0.01 in Snow Light Snow
5:48 PM 26.6 °F - 26.6 °F 100% 29.65 in 5.0 mi Calm Calm - 0.01 in Snow Light Snow
6:08 PM 26.6 °F - 26.6 °F 100% 29.65 in 7.0 mi Calm Calm - N/A   Scattered Clouds
6:28 PM 26.6 °F - 26.6 °F 100% 29.67 in 7.0 mi Calm Calm - N/A   Scattered Clouds
7:08 PM 26.6 °F - 26.6 °F 100% 29.67 in 7.0 mi Calm Calm - N/A   Overcast
7:28 PM 28.4 °F - 26.6 °F 93% 29.68 in 1.5 mi Calm Calm - N/A   Overcast
7:48 PM 28.4 °F - 26.6 °F 93% 29.68 in 1.2 mi Calm Calm - N/A   Overcast
8:28 PM 28.4 °F - 26.6 °F 93% 29.68 in 2.5 mi Calm Calm - N/A   Overcast
8:48 PM 28.4 °F 24.6 °F 26.6 °F 93% 29.69 in 2.5 mi SSW 3.5 mph - N/A   Overcast
9:28 PM 28.4 °F - 26.6 °F 93% 29.69 in 1.8 mi Calm Calm - N/A   Overcast
9:48 PM 28.4 °F - 26.6 °F 93% 29.69 in 2.5 mi Calm Calm - N/A   Overcast
10:08 PM 28.4 °F - 28.4 °F 100% 29.68 in 4.0 mi Calm Calm - N/A   Overcast
10:48 PM 30.2 °F - 28.4 °F 93% 29.69 in 7.0 mi Calm Calm - N/A   Overcast
11:08 PM 30.2 °F 25.4 °F 28.4 °F 93% 29.69 in 7.0 mi WNW 4.6 mph - N/A   Overcast
11:28 PM 30.2 °F 22.6 °F 28.4 °F 93% 29.69 in 5.0 mi NW 8.1 mph - N/A   Overcast
11:48 PM 28.4 °F 22.2 °F 26.6 °F 93% 29.70 in 7.0 mi WNW 5.8 mph - N/A   Overcast